Time,TemperatureF,DewpointF,PressureIn,WindDirection,WindDirectionDegrees,WindSpeedMPH,WindSpeedGustMPH,Humidity,HourlyPrecipIn,Conditions,Clouds,dailyrainin,SoftwareType,DateUTC
2013-06-25 00:01:00,55.1,12.0,29.70,SW,214,0.0,-999.0,18,-99.99,,,0.00,weatherlink.com 1.10,2013-06-25 06:01:00,
2013-06-25 00:16:00,53.5,12.0,29.70,SW,214,0.0,-999.0,19,-99.99,,,0.00,weatherlink.com 1.10,2013-06-25 06:16:00,
2013-06-25 00:31:00,52.9,14.0,29.70,SW,214,0.0,-999.0,21,-99.99,,,0.00,weatherlink.com 1.10,2013-06-25 06:31:00,
2013-06-25 00:47:00,52.0,14.0,29.70,SW,214,0.0,-999.0,22,-99.99,,,0.00,weatherlink.com 1.10,2013-06-25 06:47:00,
2013-06-25 01:01:00,51.7,16.0,29.72,SW,214,0.0,-999.0,24,-99.99,,,0.00,weatherlink.com 1.10,2013-06-25 07:01:00,
2013-06-25 01:16:00,52.8,14.0,29.71,South,184,0.0,-999.0,21,-99.99,,,0.00,weatherlink.com 1.10,2013-06-25 07:16:00,
2013-06-25 01:31:00,52.0,13.0,29.68,SW,220,0.0,-999.0,21,-99.99,,,0.00,weatherlink.com 1.10,2013-06-25 07:31:00,
2013-06-25 01:46:00,53.3,13.0,29.67,South,188,0.0,-999.0,20,-99.99,,,0.00,weatherlink.com 1.10,2013-06-25 07:46:00,
2013-06-25 02:01:00,53.5,13.0,29.68,South,188,0.0,-999.0,20,-99.99,,,0.00,weatherlink.com 1.10,2013-06-25 08:01:00,
2013-06-25 02:16:00,52.2,13.0,29.69,South,188,0.0,-999.0,21,-99.99,,,0.00,weatherlink.com 1.10,2013-06-25 08:16:00,
2013-06-25 02:32:00,52.2,13.0,29.68,SSE,159,0.0,-999.0,21,-99.99,,,0.00,weatherlink.com 1.10,2013-06-25 08:32:00,
2013-06-25 02:47:00,52.0,14.0,29.68,South,182,2.0,-999.0,22,-99.99,,,0.00,weatherlink.com 1.10,2013-06-25 08:47:00,
2013-06-25 03:02:00,51.4,15.0,29.67,South,173,0.0,-999.0,23,-99.99,,,0.00,weatherlink.com 1.10,2013-06-25 09:02:00,
2013-06-25 03:17:00,51.1,13.0,29.67,South,182,1.0,-999.0,22,-99.99,,,0.00,weatherlink.com 1.10,2013-06-25 09:17:00,
2013-06-25 03:32:00,51.7,13.0,29.69,SSE,168,3.0,-999.0,21,-99.99,,,0.00,weatherlink.com 1.10,2013-06-25 09:32:00,
2013-06-25 03:47:00,51.3,13.0,29.68,South,186,0.0,-999.0,22,-99.99,,,0.00,weatherlink.com 1.10,2013-06-25 09:47:00,
2013-06-25 04:02:00,49.6,14.0,29.70,South,186,0.0,-999.0,24,-99.99,,,0.00,weatherlink.com 1.10,2013-06-25 10:02:00,
2013-06-25 04:17:00,49.5,13.0,29.72,South,186,0.0,-999.0,23,-99.99,,,0.00,weatherlink.com 1.10,2013-06-25 10:17:00,
2013-06-25 04:32:00,49.8,12.0,29.70,South,186,0.0,-999.0,22,-99.99,,,0.00,weatherlink.com 1.10,2013-06-25 10:32:00,
2013-06-25 04:47:00,49.8,13.0,29.72,South,186,0.0,-999.0,23,-99.99,,,0.00,weatherlink.com 1.10,2013-06-25 10:47:00,
2013-06-25 05:02:00,49.4,13.0,29.71,South,186,0.0,-999.0,23,-99.99,,,0.00,weatherlink.com 1.10,2013-06-25 11:02:00,
2013-06-25 05:17:00,49.5,14.0,29.72,South,186,0.0,-999.0,24,-99.99,,,0.00,weatherlink.com 1.10,2013-06-25 11:17:00,
2013-06-25 05:32:00,49.5,14.0,29.76,South,184,0.0,-999.0,24,-99.99,,,0.00,weatherlink.com 1.10,2013-06-25 11:32:00,
2013-06-25 05:47:00,49.1,15.0,29.76,South,180,0.0,-999.0,25,-99.99,,,0.00,weatherlink.com 1.10,2013-06-25 11:47:00,
2013-06-25 06:02:00,49.4,15.0,29.77,South,178,1.0,-999.0,25,-99.99,,,0.00,weatherlink.com 1.10,2013-06-25 12:02:00,
2013-06-25 06:17:00,48.8,14.0,29.78,South,191,1.0,-999.0,25,-99.99,,,0.00,weatherlink.com 1.10,2013-06-25 12:17:00,
2013-06-25 06:32:00,49.2,15.0,29.80,SSE,163,0.0,-999.0,25,-99.99,,,0.00,weatherlink.com 1.10,2013-06-25 12:32:00,
2013-06-25 06:47:00,50.4,15.0,29.78,South,174,0.0,-999.0,24,-99.99,,,0.00,weatherlink.com 1.10,2013-06-25 12:47:00,
2013-06-25 07:02:00,49.8,15.0,29.78,South,174,0.0,-999.0,25,-99.99,,,0.00,weatherlink.com 1.10,2013-06-25 13:02:00,
2013-06-25 07:17:00,50.4,16.0,29.79,South,174,0.0,-999.0,25,-99.99,,,0.00,weatherlink.com 1.10,2013-06-25 13:17:00,
2013-06-25 07:32:00,52.5,16.0,29.79,South,174,0.0,-999.0,24,-99.99,,,0.00,weatherlink.com 1.10,2013-06-25 13:32:00,
2013-06-25 07:47:00,54.5,16.0,29.78,South,174,0.0,-999.0,22,-99.99,,,0.00,weatherlink.com 1.10,2013-06-25 13:47:00,
2013-06-25 08:02:00,56.6,17.0,29.76,WSW,242,4.0,-999.0,21,-99.99,,,0.00,weatherlink.com 1.10,2013-06-25 14:02:00,
2013-06-25 08:17:00,58.6,16.0,29.74,SSW,207,2.0,-999.0,19,-99.99,,,0.00,weatherlink.com 1.10,2013-06-25 14:17:00,
2013-06-25 08:31:00,60.5,14.0,29.75,South,169,0.0,-999.0,16,-99.99,,,0.00,weatherlink.com 1.10,2013-06-25 14:31:00,
2013-06-25 08:47:00,62.0,14.0,29.73,SW,223,2.0,-999.0,15,-99.99,,,0.00,weatherlink.com 1.10,2013-06-25 14:47:00,
2013-06-25 09:02:00,63.1,15.0,29.72,SW,218,4.0,-999.0,15,-99.99,,,0.00,weatherlink.com 1.10,2013-06-25 15:02:00,
2013-06-25 09:17:00,63.5,15.0,29.72,WSW,239,9.0,-999.0,15,-99.99,,,0.00,weatherlink.com 1.10,2013-06-25 15:17:00,
2013-06-25 09:32:00,64.3,18.0,29.73,SW,222,8.0,-999.0,17,-99.99,,,0.00,weatherlink.com 1.10,2013-06-25 15:32:00,
2013-06-25 09:47:00,65.3,21.0,29.73,WSW,254,4.0,-999.0,18,-99.99,,,0.00,weatherlink.com 1.10,2013-06-25 15:47:00,
2013-06-25 10:02:00,66.4,20.0,29.70,South,171,2.0,-999.0,17,-99.99,,,0.00,weatherlink.com 1.10,2013-06-25 16:02:00,
2013-06-25 10:17:00,67.4,22.0,29.70,SW,236,2.0,-999.0,18,-99.99,,,0.00,weatherlink.com 1.10,2013-06-25 16:17:00,
2013-06-25 10:32:00,67.9,21.0,29.72,South,185,11.0,-999.0,17,-99.99,,,0.00,weatherlink.com 1.10,2013-06-25 16:32:00,
2013-06-25 10:47:00,68.6,22.0,29.72,SSE,150,3.0,-999.0,17,-99.99,,,0.00,weatherlink.com 1.10,2013-06-25 16:47:00,
2013-06-25 11:02:00,69.3,23.0,29.71,SW,215,3.0,-999.0,17,-99.99,,,0.00,weatherlink.com 1.10,2013-06-25 17:02:00,
2013-06-25 11:17:00,69.6,23.0,29.71,SW,228,9.0,-999.0,17,-99.99,,,0.00,weatherlink.com 1.10,2013-06-25 17:17:00,
2013-06-25 11:32:00,70.4,22.0,29.73,SE,128,3.0,-999.0,16,-99.99,,,0.00,weatherlink.com 1.10,2013-06-25 17:32:00,
2013-06-25 11:47:00,70.9,22.0,29.72,SSE,165,2.0,-999.0,16,-99.99,,,0.00,weatherlink.com 1.10,2013-06-25 17:47:00,
2013-06-25 12:02:00,71.3,24.0,29.71,SSE,166,4.0,-999.0,17,-99.99,,,0.00,weatherlink.com 1.10,2013-06-25 18:02:00,
2013-06-25 12:17:00,72.0,25.0,29.71,SW,235,9.0,-999.0,17,-99.99,,,0.00,weatherlink.com 1.10,2013-06-25 18:17:00,
2013-06-25 12:32:00,73.9,25.0,29.73,South,173,2.0,-999.0,16,-99.99,,,0.00,weatherlink.com 1.10,2013-06-25 18:32:00,
2013-06-25 12:47:00,73.7,25.0,29.71,SSE,167,5.0,-999.0,16,-99.99,,,0.00,weatherlink.com 1.10,2013-06-25 18:47:00,
2013-06-25 13:02:00,74.2,25.0,29.71,SE,138,5.0,-999.0,16,-99.99,,,0.00,weatherlink.com 1.10,2013-06-25 19:02:00,
2013-06-25 13:17:00,74.6,25.0,29.71,South,176,2.0,-999.0,16,-99.99,,,0.00,weatherlink.com 1.10,2013-06-25 19:17:00,
2013-06-25 13:32:00,73.3,24.0,29.70,SW,222,2.0,-999.0,16,-99.99,,,0.00,weatherlink.com 1.10,2013-06-25 19:32:00,
2013-06-25 13:47:00,74.9,26.0,29.71,SSE,147,10.0,-999.0,16,-99.99,,,0.00,weatherlink.com 1.10,2013-06-25 19:47:00,
2013-06-25 14:02:00,75.6,25.0,29.69,WSW,239,16.0,-999.0,15,-99.99,,,0.00,weatherlink.com 1.10,2013-06-25 20:02:00,
2013-06-25 14:17:00,75.1,24.0,29.71,SSE,164,5.0,-999.0,15,-99.99,,,0.00,weatherlink.com 1.10,2013-06-25 20:17:00,
2013-06-25 14:32:00,75.8,26.0,29.70,South,184,0.0,-999.0,16,-99.99,,,0.00,weatherlink.com 1.10,2013-06-25 20:32:00,
2013-06-25 14:48:00,77.2,26.0,29.69,SW,214,10.0,-999.0,15,-99.99,,,0.00,weatherlink.com 1.10,2013-06-25 20:48:00,
2013-06-25 15:03:00,77.4,26.0,29.70,SW,225,5.0,-999.0,15,-99.99,,,0.00,weatherlink.com 1.10,2013-06-25 21:03:00,
2013-06-25 15:18:00,77.4,26.0,29.68,South,187,2.0,-999.0,15,-99.99,,,0.00,weatherlink.com 1.10,2013-06-25 21:18:00,
2013-06-25 15:33:00,76.0,27.0,29.70,SW,223,2.0,-999.0,16,-99.99,,,0.00,weatherlink.com 1.10,2013-06-25 21:33:00,
2013-06-25 15:48:00,77.0,27.0,29.72,SW,215,3.0,-999.0,16,-99.99,,,0.00,weatherlink.com 1.10,2013-06-25 21:48:00,
2013-06-25 16:03:00,76.0,27.0,29.72,South,183,12.0,-999.0,16,-99.99,,,0.00,weatherlink.com 1.10,2013-06-25 22:03:00,
2013-06-25 16:18:00,75.1,26.0,29.72,SSW,196,0.0,-999.0,16,-99.99,,,0.00,weatherlink.com 1.10,2013-06-25 22:18:00,
2013-06-25 16:33:00,75.3,26.0,29.72,SSE,162,0.0,-999.0,16,-99.99,,,0.00,weatherlink.com 1.10,2013-06-25 22:33:00,
2013-06-25 16:48:00,74.4,27.0,29.72,South,176,3.0,-999.0,17,-99.99,,,0.00,weatherlink.com 1.10,2013-06-25 22:48:00,
2013-06-25 17:03:00,75.3,26.0,29.72,SSE,167,3.0,-999.0,16,-99.99,,,0.00,weatherlink.com 1.10,2013-06-25 23:03:00,
2013-06-25 17:18:00,75.1,27.0,29.72,SSE,167,4.0,-999.0,17,-99.99,,,0.00,weatherlink.com 1.10,2013-06-25 23:18:00,
2013-06-25 17:33:00,75.4,28.0,29.72,SSW,213,3.0,-999.0,17,-99.99,,,0.00,weatherlink.com 1.10,2013-06-25 23:33:00,
2013-06-25 17:48:00,76.0,27.0,29.72,South,174,4.0,-999.0,16,-99.99,,,0.00,weatherlink.com 1.10,2013-06-25 23:48:00,
2013-06-25 18:03:00,76.3,28.0,29.71,SSW,197,0.0,-999.0,17,-99.99,,,0.00,weatherlink.com 1.10,2013-06-26 00:03:00,
2013-06-25 18:18:00,75.4,28.0,29.71,WSW,242,0.0,-999.0,17,-99.99,,,0.00,weatherlink.com 1.10,2013-06-26 00:18:00,
2013-06-25 18:33:00,74.9,27.0,29.70,South,181,4.0,-999.0,17,-99.99,,,0.00,weatherlink.com 1.10,2013-06-26 00:33:00,
2013-06-25 18:48:00,74.7,27.0,29.72,South,181,0.0,-999.0,17,-99.99,,,0.00,weatherlink.com 1.10,2013-06-26 00:48:00,
2013-06-25 19:03:00,74.4,27.0,29.72,South,178,2.0,-999.0,17,-99.99,,,0.00,weatherlink.com 1.10,2013-06-26 01:03:00,
2013-06-25 19:18:00,74.0,28.0,29.73,South,175,4.0,-999.0,18,-99.99,,,0.00,weatherlink.com 1.10,2013-06-26 01:18:00,
2013-06-25 19:33:00,73.7,28.0,29.67,South,188,0.0,-999.0,18,-99.99,,,0.00,weatherlink.com 1.10,2013-06-26 01:33:00,
2013-06-25 19:48:00,72.5,28.0,29.69,ESE,113,0.0,-999.0,19,-99.99,,,0.00,weatherlink.com 1.10,2013-06-26 01:48:00,
2013-06-25 20:03:00,71.3,27.0,29.70,South,175,2.0,-999.0,19,-99.99,,,0.00,weatherlink.com 1.10,2013-06-26 02:03:00,
2013-06-25 20:18:00,70.4,27.0,29.72,SSE,168,0.0,-999.0,20,-99.99,,,0.00,weatherlink.com 1.10,2013-06-26 02:18:00,
2013-06-25 20:33:00,69.9,27.0,29.70,SSE,167,0.0,-999.0,20,-99.99,,,0.00,weatherlink.com 1.10,2013-06-26 02:33:00,
2013-06-25 20:48:00,69.8,27.0,29.70,South,180,4.0,-999.0,20,-99.99,,,0.00,weatherlink.com 1.10,2013-06-26 02:48:00,
2013-06-25 21:03:00,68.6,28.0,29.70,SSW,198,0.0,-999.0,22,-99.99,,,0.00,weatherlink.com 1.10,2013-06-26 03:03:00,
2013-06-25 21:18:00,67.1,27.0,29.73,South,185,0.0,-999.0,22,-99.99,,,0.00,weatherlink.com 1.10,2013-06-26 03:18:00,
2013-06-25 21:33:00,66.8,28.0,29.70,South,190,0.0,-999.0,23,-99.99,,,0.00,weatherlink.com 1.10,2013-06-26 03:33:00,
2013-06-25 21:48:00,66.1,27.0,29.73,South,169,0.0,-999.0,23,-99.99,,,0.00,weatherlink.com 1.10,2013-06-26 03:48:00,
2013-06-25 22:03:00,65.0,27.0,29.74,South,169,0.0,-999.0,24,-99.99,,,0.00,weatherlink.com 1.10,2013-06-26 04:03:00,
2013-06-25 22:18:00,63.2,28.0,29.77,South,169,0.0,-999.0,26,-99.99,,,0.00,weatherlink.com 1.10,2013-06-26 04:18:00,
2013-06-25 22:33:00,61.3,27.0,29.76,South,169,0.0,-999.0,27,-99.99,,,0.00,weatherlink.com 1.10,2013-06-26 04:33:00,
2013-06-25 23:18:00,57.6,26.0,29.82,South,169,0.0,-999.0,30,-99.99,,,0.00,weatherlink.com 1.10,2013-06-26 05:18:00,
2013-06-25 23:33:00,57.2,27.0,29.81,South,182,0.0,-999.0,32,-99.99,,,0.00,weatherlink.com 1.10,2013-06-26 05:33:00,
2013-06-25 23:48:00,57.2,27.0,29.81,SE,144,0.0,-999.0,32,-99.99,,,0.00,weatherlink.com 1.10,2013-06-26 05:48:00,